Location: Aldenham
(51.6667°N, 0.3500°W)
Time: 23:45:24
(UTC+00:00)

Vanguard 2 - Pass Details

Date: 23 February 2026
Orbit: 553 x 2896 km, 32.9° (Epoch: 7 March)

Event Time Altitude Azimuth Distance (km) Brightness Sun altitude
Exits shadow 05:24:41 - 218° (SW) 3,297 10.4 -15.4°
Reaches altitude 10° 05:27:27 10° 199° (SSW) 2,653 10.1 -15.0°
Maximum altitude 05:28:57 11° 184° (S) 2,445 10.0 -14.8°
Drops below altitude 10° 05:30:20 10° 169° (S) 2,383 10.2 -14.6°
Sets 05:34:30 0° 132° (SE) 2,974 11.3 -13.9°
